www.pogodaiklimat.ru

Погода и климат >> Архив погоды >> Мексика >> La Paz


ПОГОДА в La Paz

  • Прогноз погоды в La Paz
  • Монитор погоды в La Paz
  • Климат города

АРХИВ ПОГОДЫ в La Paz

Время (UTC), дата Ветер
(напр.,м/с)
 
Видим.   Явления Облачность Т
(С)
Тd
(С)
f
(%)
Тe
(С)
Тes
(С)
Комфортность P
(гПа)
Po
(гПа)
Тmin
(С)
Tmax
(С)
R
(мм)
S
(см)
03 21.03 Ю 6 2000 м 1/0
[Ci fib]
+23.7 +16.9 66 +27 +27 жарко 1015.6 1013.6
06 21.03 Ю 5 2000 м ясно +19.6 +16.5 82 +22 +22 комфорт 1017.0 1014.9 +15.2 +36.4
09 21.03 Ю 5 2000 м ясно +17.8 +16.2 90 +17 +17 1016.6 1014.5
12 21.03 Ю 4 2000 м ясно +15.7 +14.6 93 +15 +15 1016.0 1013.9 +15.4 +36.4
15 21.03 Ю 4 25 км 3/0
[Ci fib]
+16.7 +14.8 89 +16 +18 1017.2 1015.0
18 21.03 Ю 5 30 км 1/0
[Ci fib]
+26.4 +15.8 52 +30 +38 душно 1016.8 1014.7 +15.0 +26.4
21 21.03 Ю 3 30 км 5/0
[Cs]
+33.2 +16.4 37 +36 +48 очень
душно
1014.5 1012.4
00 22.03 СЗ 2 30 км 4/0
[Ci fib]
+32.6 +16.6 38 +36 +38 очень
душно
1012.7 1010.6 +15.0 +36.2
03 22.03 Ю 4 2000 м 1/0
[Ci fib]
+23.5 +16.8 66 +27 +27 душно 1013.9 1011.8
06 22.03 Ю 4 2000 м ясно +19.2 +16.1 82 +21 +21 комфорт 1015.0 1012.9 +15.0 +36.2
09 22.03 Ю 3 2000 м ясно +18.4 +15.9 85 +19 +19 1014.2 1012.1
12 22.03 Ю 2 2000 м ясно +17.0 +14.4 85 +17 +17 1013.8 1011.6 +16.8 +36.2
15 22.03 Ю 2 2000 м ясно +17.0 +14.4 85 +17 +21 1013.8 1011.6 +16.8 +36.2
18 22.03 СЗ 3 30 км 5/0
[Ci fib]
+28.2 +12.6 38 +30 +42 жарко 1015.3 1013.1 +16.0 +28.2
21 22.03 С 3 30 км 6/0 2000 м
[As trans Cs]
+34.4 +11.6 25 +34 +44 очень
жарко
1013.4 1011.3
00 23.03 СЗ 3 30 км 5/0
[Ci fib]
+32.2 +14.2 34 +34 +36 душно 1011.9 1009.9 +16.0 +34.4
03 23.03 СЗ 1 2000 м 3/0
[Ci fib]
+25.1 +17.1 61 +29 +29 душно 1013.1 1011.0
06 23.03 Ю 2 2000 м 3/0
[Ci fib]
+22.6 +16.1 67 +27 +27 душно 1014.5 1012.5 +16.0 +34.4
09 23.03 Ю 2 2000 м 1/0
[Ci fib]
+20.4 +16.4 78 +24 +24 комфорт 1013.7 1011.6
12 23.03 Ю 3 2000 м 4/0
[Ci fib]
+19.6 +16.0 80 +22 +22 комфорт 1013.7 1011.6 +19.2 +34.4
15 23.03 Ю 1 25 км 5/5 1200 м
[Sc diur, vesp]
+20.0 +16.3 79 +24 +26 комфорт 1015.8 1013.7
18 23.03 С 3 30 км 6/0 2000 м
[As trans Ci fib]
+25.2 +15.3 54 +28 +38 жарко 1017.2 1015.1 +18.8 +25.8
21 23.03 С 5 30 км 5/1 1200 м
[Sc diur, vesp Ci fib]
+26.0 +17.5 59 +30 +37 душно 1016.1 1014.0
00 24.03 С 4 30 км 3/0
[Ci fib]
+25.2 +14.0 50 +28 +29 жарко 1016.0 1013.9 +18.8 +27.0
03 24.03 СВ 2 2000 м 3/0
[Ci fib]
+22.4 +11.0 48 +24 +24 комфорт 1016.8 1014.7
06 24.03 СВ 1 2000 м 1/0
[Ci fib]
+21.2 +11.5 54 +23 +23 комфорт 1017.5 1015.4 +18.8 +27.0
12 24.03 СВ 3 2000 м ясно +20.2 +10.3 53 +22 +22 комфорт 1017.3 1015.2 +18.0 +27.0
15 24.03 С 4 25 км 4/0
[Ci fib]
+21.0 +13.2 61 +24 +26 комфорт 1019.5 1017.4
18 24.03 С 5 30 км 1/0
[Ci fib]
+25.4 +12.3 44 +27 +36 жарко 1020.0 1017.9 +18.0 +25.8
21 24.03 С 4 30 км 1/0
[Ci fib]
+27.7 +11.2 36 +29 +39 жарко 1017.9 1015.8
00 25.03 СЗ 4 30 км ясно +26.3 +10.3 37 +27 +29 жарко 1016.3 1014.2 +18.0 +27.8
03 25.03 СВ 1 2000 м ясно +22.6 +10.9 48 +25 +25 комфорт 1016.3 1014.2
09 25.03 ЮВ 1 2000 м ясно +15.8 +8.4 61 +17 +17 1015.9 1013.8
12 25.03 Ю 1 2000 м ясно +12.5 +5.7 63 +13 +13 1015.0 1012.8 +12.4 +27.8
15 25.03 ЮВ 1 25 км ясно +16.4 +8.2 58 +17 +21 1016.6 1014.4
18 25.03 СЗ 3 30 км ясно +26.8 +11.7 39 +28 +42 жарко 1016.8 1014.7 +12.0 +26.8
21 25.03 СЗ 4 30 км ясно +28.6 +10.5 32 +29 +40 жарко 1015.1 1012.9
00 26.03 СЗ 2 30 км ясно +29.2 +14.5 41 +31 +34 жарко 1013.7 1011.6 +12.0 +31.0
03 26.03 Ю 3 2000 м ясно +24.5 +10.9 42 +26 +26 жарко 1014.7 1012.6
06 26.03 Ю 2 2000 м ясно +19.8 +12.2 62 +22 +22 комфорт 1014.9 1012.8 +12.0 +31.0
09 26.03 Ю 2 2000 м ясно +17.4 +8.4 55 +18 +18 1013.8 1011.7
12 26.03 Ю 3 2000 м ясно +17.2 +7.7 54 +17 +17 1013.5 1011.4 +16.6 +31.0
15 26.03 Ю 2 25 км ясно +17.0 +7.0 52 +17 +21 1015.0 1012.8
18 26.03 З 2 30 км ясно +30.0 +10.8 30 +30 +47 жарко 1015.2 1013.1 +16.2 +30.8
21 26.03 С 3 30 км ясно +31.9 +8.7 24 +31 +44 жарко 1013.7 1011.6
00 27.03 СЗ 2 30 км ясно +33.2 +12.5 28 +33 +36 жарко 1012.0 1009.9 +16.2 +33.4
03 27.03 ЮЗ 2 2000 м ясно +24.9 +17.6 64 +29 +29 душно 1013.7 1011.6
06 27.03 Ю 4 2000 м ясно +20.4 +16.1 76 +23 +23 комфорт 1014.7 1012.7 +16.2 +33.4
12 27.03 Ю 3 2000 м ясно +15.8 +14.2 90 +15 +15 1013.0 1010.9 +15.8 +33.4
15 27.03 Ю 3 25 км ясно +16.0 +13.4 85 +16 +19 1014.4 1012.3
18 27.03 Ю 2 30 км ясно +27.9 +10.2 33 +28 +45 жарко 1014.3 1012.2 +14.0 +28.6
21 27.03 СЗ 4 30 км ясно +29.7 +11.1 32 +30 +41 жарко 1012.2 1010.1
00 28.03 Ю 4 30 км ясно +31.0 +13.2 34 +32 +34 жарко 1010.9 1008.8 +14.0 +33.0

 

Местоположение метеостанции La Paz (Мексика): широта 24.17 долгота -110.30 высота над уровнем моря 18 м.

В архиве по умолчанию представлена погода в La Paz за последнюю неделю. Архивные данные за месяц целиком и за предыдущие месяцы, начиная с января 2011 года, Вы можете получить, выбрав интересующий диапазон дат из раскрывающегося списка и нажав кнопку "Ввод!".

Внимание! Время в таблицах - всемирное. Для получения местного времени необходимо прибавить поправку, которая в La Paz равна -6 ч.

Смотрите также архив погоды в соседних городах и на ближайших метеорологических станциях:

Погода в Ciudad Constitucion (Мексика) (166 км)
Погода в Loreto (Мексика) (229 км)
Погода в Culiacan (Мексика) (302 км)
Погода в Choix (Мексика) (354 км)
Погода в Ciudad Obregon (Мексика) (361 км)
Погода в Santa Rosalia (Мексика) (397 км)
Погода в Colonia Juan Carras-Co (Мексика) (412 км)
Погода в Guaymas Upper Air Site (Мексика) (421 км)
Погода в Empalme (Мексика) (422 км)
Погода в Tepehuanes (Мексика) (481 км)

Пояснения к столбцам:

Ветер - указаны скорость ветра в м/с - средняя за 10 мин, порывы в срок и между сроками (в фигурных скобках) и направление, откуда дует ветер: С - северный, СВ - северо-восточный, В - восточный, ЮВ - юго-восточный, Ю - южный, ЮЗ - юго-западный, З - западный, СЗ - северо-западный.
Видимость - горизонтальная дальность видимости в метрах или километрах. При видимости от 1 до 10 км при отсутствии осадков обычно наблюдается дымка, при ухудшении видимости до 1 км и менее - туман. В сухую погоду видимость может ухудшаться дымом, пылью или мглою.
Явления - указаны атмосферные явления, наблюдавшиеся в срок или в последний час перед сроком; фигурными скобками обозначены явления, наблюдавшиеся между сроками (за 1-3 часа до срока); квадратными скобками обозначены град или гололедные отложения с указанием их диаметра в мм.
Облачность - указаны через наклонную черту общая и нижняя облачность в баллах и высота нижней границы облаков в метрах; квадратными скобками обозначены формы облаков: Ci - перистые, Cs - перисто-слоистые, Cc - перисто-кучевые, Ac - высококучевые, As - высокослоистые, Sc - слоисто-кучевые, Ns - слоисто-дождевые, Cu - кучевые, Cb - кучево-дождевые. Подробнее классификацию облаков см. в Атласе облаков (PDF).
T - Температура воздуха - температура, измеренная на высоте 2 м над землей.
Td - Температура точки росы - температура, при понижении до которой содержащийся в воздухе водяной пар достигнет насыщения.
f - Относительная влажность воздуха - влажноcть воздуха, измеренная на высоте 2 м над землей.
Te - Эффективная температура - температура, которую ощущает одетый по сезону человек в тени. Характеристика душности погоды. При расчете учитывается влияние влажности воздуха и скорости ветра на теплоощущения человека.
Tes - Эффективная температура на солнце - температура, которую ощущает человек, с поправкой на солнечный нагрев. Характеристика знойности погоды. Зависит от высоты солнца над горизонтом, облачности и скорости ветра. Ночью, в пасмурную погоду, а также при ветре 12 м/с и более поправка равна нулю.
P - Атмосферное давление - приведенное к уровню моря атмосферное давление.
Po - Атмосферное давление - измеренное на уровне метеостанции атмосферное давление.
Tmin - Минимальная температура - минимум температуры воздуха на высоте 2 м над землей.
Tmax - Максимальная температура - максимум температуры воздуха на высоте 2 м над землей.
R - Количество осадков - Количество выпавших осадков, мм. При наведении курсора мыши на число - период времени, за который выпало указанное количество осадков.
S - Снежный покров - Высота снежного покрова, см. При наведении курсора мыши на число - состояние снежного покрова и степень покрытия местности в баллах.